Garrett, IN

5:02 PM EST on February 23, 2017 (GMT -0500)
Auburn

Weather History for KGWB - September, 2013

Change the Weather History Date:

Monday, September 23, 2013

  Actual Average (KFWA) Record (KFWA)
Temperature  
Mean Temperature 54 °F -  
Max Temperature 66 °F 69 °F 93 °F (2010)
Min Temperature 41 °F 48 °F 29 °F (1995)
Degree Days  
Heating Degree Days 12    
Growing Degree Days 4 (Base 50)    
Moisture  
Dew Point 41 °F    
Average Humidity 70    
Maximum Humidity 93    
Minimum Humidity 40    
Precipitation  
Precipitation 0.00 in - - ()
Sea Level Pressure  
Sea Level Pressure 30.12 in    
Wind  
Wind Speed 3 mph (East)    
Max Wind Speed 12 mph    
Max Gust Speed 20 mph    
Averages and records for this station are not official NWS values.
T = Trace of Precipitation, MM = Missing Value Source: NWS Daily Summary

Daily Weather History Graph

Daily Weather History Graph

Search for Another Location

Airport or City:

Trip Planner

Search our weather history database for the weather conditions in past years. The results will help you decide how hot, cold, wet, or windy it might be!

Date:

Astronomy

Sep. 23, 2013 Rise Set
Actual Time 7:28 AM EDT 7:35 PM EDT
Civil Twilight 7:01 AM EDT 8:02 PM EDT
Nautical Twilight 6:29 AM EDT 8:35 PM EDT
Astronomical Twilight 5:56 AM EDT 9:07 PM EDT
Moon 10:03 PM EDT 11:50 AM EDT
Length of Visible Light 13h 01m
Length of Day
12h 06m
Waning Gibbous, 81% of the Moon is Illuminated
Sep 23
Waning Gibbous
Sep 26
Last Quarter
Oct 4
New
Oct 11
First Quarter
Oct 18
Full

Hourly Weather History & Observations

Time (EDT) Temp. Windchill Dew Point Humidity Pressure Visibility Wind Dir Wind Speed Gust Speed Precip Events Conditions
12:15 AM 44.6 °F 43.1 °F 41.0 °F 87% 30.07 in - NE 3.5 mph - N/A   Unknown
12:35 AM 44.6 °F 43.1 °F 41.0 °F 87% 30.08 in - NE 3.5 mph - N/A   Unknown
12:55 AM 44.6 °F 43.1 °F 39.2 °F 81% 30.08 in - NE 3.5 mph - N/A   Clear
1:15 AM 42.8 °F 41.1 °F 39.2 °F 87% 30.08 in - NE 3.5 mph - N/A   Unknown
1:35 AM 42.8 °F 41.1 °F 39.2 °F 87% 30.09 in - NE 3.5 mph - N/A   Unknown
1:55 AM 42.8 °F - 39.2 °F 87% 30.09 in - Calm Calm - N/A   Unknown
2:15 AM 42.8 °F - 39.2 °F 87% 30.10 in - Calm Calm - N/A   Unknown
2:35 AM 42.8 °F - 39.2 °F 87% 30.10 in - Calm Calm - N/A   Unknown
2:55 AM 42.8 °F - 39.2 °F 87% 30.09 in - Calm Calm - N/A   Unknown
3:15 AM 42.8 °F - 37.4 °F 81% 30.09 in - Calm Calm - N/A   Unknown
3:35 AM 42.8 °F - 39.2 °F 87% 30.09 in - Calm Calm - N/A   Unknown
3:55 AM 42.8 °F - 39.2 °F 87% 30.09 in - Calm Calm - N/A   Unknown
4:15 AM 42.8 °F - 37.4 °F 81% 30.09 in - Calm Calm - N/A   Unknown
4:35 AM 41.0 °F - 37.4 °F 87% 30.09 in - Calm Calm - N/A   Unknown
4:55 AM 42.8 °F - 37.4 °F 81% 30.09 in - Calm Calm - N/A   Unknown
5:15 AM 41.0 °F 39.0 °F 37.4 °F 87% 30.09 in - ENE 3.5 mph - N/A   Unknown
5:35 AM 41.0 °F 39.0 °F 37.4 °F 87% 30.10 in - ENE 3.5 mph - N/A   Unknown
5:55 AM 41.0 °F 39.0 °F 37.4 °F 87% 30.09 in - ENE 3.5 mph - N/A   Unknown
6:15 AM 41.0 °F - 37.4 °F 87% 30.10 in - Calm Calm - N/A   Unknown
6:35 AM 41.0 °F - 37.4 °F 87% 30.10 in - Calm Calm - N/A   Unknown
6:55 AM 41.0 °F 39.0 °F 37.4 °F 87% 30.12 in - ENE 3.5 mph - N/A   Unknown
7:15 AM 41.0 °F 39.0 °F 37.4 °F 87% 30.13 in - ENE 3.5 mph - N/A   Unknown
7:35 AM 41.0 °F - 37.4 °F 87% 30.13 in - Calm Calm - N/A   Unknown
7:55 AM 41.0 °F - 37.4 °F 87% 30.15 in - Calm Calm - N/A   Unknown
8:15 AM 42.8 °F - 41.0 °F 93% 30.15 in - Calm Calm - N/A   Unknown
8:35 AM 44.6 °F 43.1 °F 41.0 °F 87% 30.16 in - ENE 3.5 mph - N/A   Unknown
8:55 AM 46.4 °F 43.5 °F 42.8 °F 87% 30.16 in - ENE 5.8 mph - N/A   Unknown
9:15 AM 48.2 °F - 42.8 °F 82% 30.16 in - East 5.8 mph - N/A   Clear
9:35 AM 50.0 °F - 44.6 °F 82% 30.16 in - ENE 4.6 mph - N/A   Scattered Clouds
9:55 AM 51.8 °F - 44.6 °F 76% 30.17 in - East 5.8 mph - N/A   Scattered Clouds
10:15 AM 53.6 °F - 44.6 °F 72% 30.17 in - East 5.8 mph - N/A   Scattered Clouds
10:35 AM 55.4 °F - 44.6 °F 67% 30.17 in - ESE 5.8 mph - N/A   Clear
10:55 AM 57.2 °F - 44.6 °F 63% 30.17 in - ESE 8.1 mph - N/A   Clear
11:15 AM 59.0 °F - 44.6 °F 59% 30.17 in - East 8.1 mph - N/A   Clear
11:35 AM 59.0 °F - 44.6 °F 59% 30.17 in - SE 5.8 mph - N/A   Scattered Clouds
11:55 AM 60.8 °F - 44.6 °F 55% 30.16 in - ESE 5.8 mph - N/A   Mostly Cloudy
12:15 PM 60.8 °F - 44.6 °F 55% 30.16 in - East 5.8 mph - N/A   Mostly Cloudy
12:35 PM 60.8 °F - 42.8 °F 52% 30.16 in - East 4.6 mph - N/A   Mostly Cloudy
12:55 PM 60.8 °F - 42.8 °F 52% 30.16 in - SE 4.6 mph - N/A   Mostly Cloudy
1:15 PM 60.8 °F - 42.8 °F 52% 30.16 in - ESE 4.6 mph - N/A   Overcast
1:35 PM 62.6 °F - 42.8 °F 48% 30.16 in - Calm Calm - N/A   Overcast
1:55 PM 62.6 °F - 42.8 °F 48% 30.16 in - ESE 5.8 mph - N/A   Mostly Cloudy
2:15 PM 62.6 °F - 42.8 °F 48% 30.15 in - ESE 6.9 mph - N/A   Mostly Cloudy
2:35 PM 64.4 °F - 42.8 °F 45% 30.15 in - East 6.9 mph - N/A   Mostly Cloudy
2:55 PM 64.4 °F - 42.8 °F 45% 30.13 in - East 8.1 mph - N/A   Scattered Clouds
3:15 PM 64.4 °F - 41.0 °F 42% 30.13 in - ENE 5.8 mph - N/A   Scattered Clouds
3:35 PM 66.2 °F - 42.8 °F 43% 30.12 in - East 8.1 mph - N/A   Clear
3:55 PM 66.2 °F - 41.0 °F 40% 30.12 in - East 6.9 mph - N/A   Clear
4:15 PM 66.2 °F - 42.8 °F 43% 30.11 in - NE 11.5 mph 19.6 mph N/A   Clear
4:35 PM 64.4 °F - 41.0 °F 42% 30.11 in - ESE 8.1 mph - N/A   Clear
4:55 PM 64.4 °F - 41.0 °F 42% 30.10 in - East 9.2 mph - N/A   Clear
5:15 PM 64.4 °F - 41.0 °F 42% 30.11 in - East 9.2 mph - N/A   Clear
5:35 PM 64.4 °F - 42.8 °F 45% 30.10 in - East 6.9 mph - N/A   Clear
5:55 PM 64.4 °F - 42.8 °F 45% 30.10 in - East 9.2 mph - N/A   Clear
6:15 PM 64.4 °F - 42.8 °F 45% 30.10 in - East 6.9 mph - N/A   Clear
6:35 PM 62.6 °F - 42.8 °F 48% 30.11 in - East 8.1 mph - N/A   Clear
6:55 PM 60.8 °F - 42.8 °F 52% 30.10 in - East 4.6 mph - N/A   Clear
7:15 PM 59.0 °F - 42.8 °F 55% 30.11 in - East 4.6 mph - N/A   Clear
7:35 PM 55.4 °F - 42.8 °F 63% 30.10 in - East 5.8 mph - N/A   Clear
7:55 PM 53.6 °F - 42.8 °F 67% 30.10 in - East 4.6 mph - N/A   Clear
8:15 PM 51.8 °F - 42.8 °F 71% 30.11 in - East 4.6 mph - N/A   Clear
8:35 PM 51.8 °F - 42.8 °F 71% 30.11 in - East 4.6 mph - N/A   Clear
8:55 PM 51.8 °F - 42.8 °F 71% 30.12 in - East 3.5 mph - N/A   Clear
9:15 PM 50.0 °F - 42.8 °F 76% 30.12 in - East 3.5 mph - N/A   Clear
9:35 PM 50.0 °F - 42.8 °F 76% 30.12 in - Calm Calm - N/A   Clear
9:55 PM 50.0 °F - 42.8 °F 76% 30.13 in - Calm Calm - N/A   Clear
10:15 PM 48.2 °F - 42.8 °F 82% 30.13 in - East 3.5 mph - N/A   Clear
10:35 PM 46.4 °F 44.3 °F 42.8 °F 87% 30.12 in - East 4.6 mph - N/A   Clear
10:55 PM 48.2 °F - 42.8 °F 82% 30.12 in - East 5.8 mph - N/A   Clear
11:15 PM 50.0 °F - 42.8 °F 76% 30.12 in - East 4.6 mph - N/A   Clear
11:35 PM 50.0 °F - 42.8 °F 76% 30.13 in - East 4.6 mph - N/A   Clear
11:55 PM 50.0 °F - 42.8 °F 76% 30.13 in - ESE 3.5 mph - N/A   Clear